Date String (YYYY-MM-DD hh:mm:ss) UTC,Instrument flags,Ambient pressure (hPa),Sample flow (lpm),Bypass flow (lpm),Sample temperature (°C),Ambient temperature (°C),ASC tube jacket temperature (°C),LED temperature (°C),Box temperature (°C),Sample RH (%),Span deviation,Mass concentration (μg/m³),Mass concentration (μg/m³),Mass concentration (μg/m³)
DateTimeUTC,F1_M11,P_M11,Q1_M11,Q2_M11,T1_M11,T2_M11,T3_M11,T4_M11,T5_M11,U1_M11,ZSPAN_M11,X0_M11,X2_M11,X1_M11
2023-04-06 19:00:00,,0834.5,5.00,0.00,22.1,20.5,00.0,30.4,23.6,07.5,0000.0,0007.38,0002.18,0001.42
2023-04-06 19:01:00,,0834.4,5.00,0.00,22.1,20.5,00.0,30.4,23.6,07.3,0000.0,0007.45,0002.22,0001.43
2023-04-06 19:02:00,,0834.4,5.01,0.00,22.1,20.5,00.0,30.4,23.5,07.2,0000.0,0007.55,0002.22,0001.43
2023-04-06 19:03:00,,0834.4,5.00,0.00,22.1,20.5,00.0,30.4,23.5,06.9,0000.0,0007.80,0002.26,0001.45
2023-04-06 19:04:00,,0834.4,4.99,0.00,22.0,20.4,00.0,30.4,23.5,07.2,0000.0,0007.57,0002.27,0001.47
2023-04-06 19:05:00,,0834.4,5.01,0.00,22.0,20.4,00.0,30.4,23.4,07.3,0000.0,0007.19,0002.27,0001.48
2023-04-06 19:06:00,,0834.4,5.00,0.00,22.0,20.3,00.0,30.4,23.4,07.3,0000.0,0007.17,0002.26,0001.49
2023-04-06 19:07:00,,0834.4,4.99,0.00,22.0,20.3,00.0,30.4,23.4,06.7,0000.0,0007.09,0002.24,0001.50
2023-04-06 19:08:00,,0834.4,4.99,0.00,22.0,20.3,00.0,30.4,23.4,06.8,0000.0,0007.06,0002.23,0001.52
2023-04-06 19:09:00,,0834.4,5.01,0.00,22.0,20.2,00.0,30.4,23.4,07.3,0000.0,0006.50,0002.20,0001.53
2023-04-06 19:10:00,,0834.3,5.01,0.00,22.0,20.1,00.0,30.3,23.3,07.6,0000.0,0004.96,0002.21,0001.54
2023-04-06 19:11:00,,0834.3,4.99,0.00,21.9,20.1,00.0,30.3,23.3,07.6,0000.0,0004.25,0002.24,0001.56
2023-04-06 19:12:00,,0834.4,5.01,0.00,21.9,20.1,00.0,30.3,23.3,08.0,0000.0,0004.11,0002.24,0001.59
2023-04-06 19:13:00,,0834.4,5.01,0.00,21.9,20.1,00.0,30.3,23.3,07.5,0000.0,0004.12,0002.29,0001.63
2023-04-06 19:14:00,,0834.7,4.99,0.00,21.9,20.2,00.0,30.3,23.3,07.4,0000.0,0003.78,0002.31,0001.65
2023-04-06 19:15:00,,0834.6,5.01,0.00,21.9,20.2,00.0,30.3,23.3,07.4,0000.0,0003.92,0002.34,0001.65
2023-04-06 19:16:00,,0834.4,5.01,0.00,21.9,20.2,00.0,30.3,23.3,07.4,0000.0,0004.03,0002.41,0001.66
2023-04-06 19:17:00,,0834.6,5.00,0.00,21.9,20.2,00.0,30.3,23.3,07.3,0000.0,0004.10,0002.42,0001.68
2023-04-06 19:18:00,,0834.5,4.99,0.00,21.8,20.2,00.0,30.2,23.3,07.7,0000.0,0004.18,0002.45,0001.69
2023-04-06 19:19:00,,0834.2,4.99,0.00,21.8,20.2,00.0,30.2,23.3,07.6,0000.0,0004.18,0002.44,0001.70
2023-04-06 19:20:00,,0834.3,5.01,0.00,21.8,20.2,00.0,30.2,23.4,07.5,0000.0,0004.32,0002.49,0001.71
2023-04-06 19:21:00,,0834.6,5.01,0.00,21.9,20.2,00.0,30.2,23.4,07.9,0000.0,0004.51,0002.53,0001.72
2023-04-06 19:22:00,,0834.3,5.00,0.00,21.9,20.3,00.0,30.2,23.3,08.3,0000.0,0004.38,0002.46,0001.71
2023-04-06 19:23:00,,0834.6,4.98,0.00,21.8,20.3,00.0,30.2,23.3,08.4,0000.0,0004.32,0002.43,0001.70
2023-04-06 19:24:00,,0834.3,5.01,0.00,21.8,20.3,00.0,30.2,23.3,08.0,0000.0,0004.18,0002.38,0001.69
2023-04-06 19:25:00,,0834.4,5.01,0.00,21.9,20.8,00.0,30.2,23.6,07.7,0000.0,0004.02,0002.34,0001.68
2023-04-06 19:26:00,,0834.3,5.00,0.00,22.0,22.1,00.0,30.2,24.0,07.6,0000.0,0003.84,0002.29,0001.68
2023-04-06 19:27:00,,0834.2,5.00,0.00,22.2,22.7,00.0,30.2,24.2,08.0,0000.0,0003.70,0002.23,0001.69
2023-04-06 19:28:00,,0834.4,5.00,0.00,22.2,22.6,00.0,30.3,24.1,08.2,0000.0,0003.64,0002.25,0001.69
2023-04-06 19:29:00,,0834.4,5.01,0.00,22.2,22.3,00.0,30.3,23.9,07.4,0000.0,0003.68,0002.24,0001.69
2023-04-06 19:30:00,,0834.2,5.00,0.00,22.2,21.9,00.0,30.4,23.8,08.1,0000.0,0003.87,0002.28,0001.68
2023-04-06 19:31:00,,0834.3,5.00,0.00,22.2,21.6,00.0,30.4,23.7,07.9,0000.0,0004.06,0002.31,0001.67
2023-04-06 19:32:00,,0834.6,4.99,0.00,22.2,21.3,00.0,30.4,23.7,07.4,0000.0,0003.97,0002.30,0001.65
2023-04-06 19:33:00,,0834.3,4.99,0.00,22.2,21.1,00.0,30.4,23.6,06.9,0000.0,0004.22,0002.39,0001.66
2023-04-06 19:34:00,,0834.5,5.00,0.00,22.2,20.9,00.0,30.4,23.6,07.4,0000.0,0004.29,0002.40,0001.65
2023-04-06 19:35:00,,0834.4,5.01,0.00,22.2,20.8,00.0,30.5,23.6,07.0,0000.0,0004.40,0002.45,0001.65
2023-04-06 19:36:00,,0834.5,4.98,0.00,22.1,20.7,00.0,30.5,23.5,06.5,0000.0,0004.40,0002.46,0001.65
2023-04-06 19:37:00,,0834.4,5.00,0.00,22.1,20.6,00.0,30.5,23.6,06.3,0000.0,0004.67,0002.50,0001.64
2023-04-06 19:38:00,,0834.4,5.01,0.00,22.1,20.6,00.0,30.5,23.6,06.4,0000.0,0005.25,0002.53,0001.62
2023-04-06 19:39:00,,0834.3,5.00,0.00,22.1,20.5,00.0,30.5,23.5,06.7,0000.0,0005.34,0002.53,0001.62
2023-04-06 19:40:00,,0834.2,4.99,0.00,22.1,20.5,00.0,30.4,23.6,06.8,0000.0,0005.28,0002.54,0001.63
2023-04-06 19:41:00,,0834.3,5.00,0.00,22.1,20.5,00.0,30.4,23.6,06.8,0000.0,0005.11,0002.51,0001.64
2023-04-06 19:42:00,,0834.2,5.00,0.00,22.1,20.5,00.0,30.4,23.5,06.6,0000.0,0004.95,0002.48,0001.65
2023-04-06 19:43:00,,0834.2,5.01,0.00,22.1,20.5,00.0,30.4,23.5,06.9,0000.0,0004.74,0002.42,0001.64
2023-04-06 19:44:00,,0834.3,5.01,0.00,22.1,20.5,00.0,30.4,23.6,06.9,0000.0,0004.59,0002.38,0001.64
2023-04-06 19:45:00,,0834.2,5.00,0.00,22.1,20.5,00.0,30.4,23.6,06.8,0000.0,0004.57,0002.38,0001.64
2023-04-06 19:46:00,,0834.2,5.01,0.00,22.1,20.5,00.0,30.4,23.6,06.7,0000.0,0004.46,0002.35,0001.63
2023-04-06 19:47:00,,0834.2,5.00,0.00,22.1,20.5,00.0,30.4,23.6,07.1,0000.0,0004.42,0002.34,0001.62
2023-04-06 19:48:00,,0834.2,5.00,0.00,22.1,20.5,00.0,30.4,23.5,06.4,0000.0,0004.36,0002.34,0001.62
2023-04-06 19:49:00,,0834.2,5.01,0.00,22.1,20.5,00.0,30.4,23.5,06.7,0000.0,0003.70,0002.30,0001.63
2023-04-06 19:50:00,,0834.2,5.00,0.00,22.1,20.5,00.0,30.4,23.5,06.7,0000.0,0003.63,0002.30,0001.64
2023-04-06 19:51:00,,0834.2,4.99,0.00,22.1,20.5,00.0,30.4,23.5,07.1,0000.0,0003.90,0002.39,0001.65
2023-04-06 19:52:00,,0834.2,5.00,0.00,22.0,20.4,00.0,30.4,23.5,07.0,0000.0,0004.04,0002.45,0001.66
2023-04-06 19:53:00,,0834.2,5.01,0.00,22.0,20.4,00.0,30.4,23.5,07.0,0000.0,0004.04,0002.47,0001.66
2023-04-06 19:54:00,,0834.2,5.01,0.00,22.0,20.3,00.0,30.4,23.4,06.8,0000.0,0004.88,0002.53,0001.67
2023-04-06 19:55:00,,0834.1,5.01,0.00,22.0,20.3,00.0,30.4,23.4,06.8,0000.0,0005.17,0002.57,0001.67
2023-04-06 19:56:00,,0834.1,5.00,0.00,22.0,20.3,00.0,30.4,23.4,06.9,0000.0,0005.20,0002.57,0001.67
2023-04-06 19:57:00,,0834.1,4.99,0.00,22.0,20.3,00.0,30.4,23.5,07.0,0000.0,0005.35,0002.57,0001.68
2023-04-06 19:58:00,,0834.1,5.00,0.00,22.0,20.4,00.0,30.4,23.5,07.2,0000.0,0005.62,0002.58,0001.70
2023-04-06 19:59:00,,0834.1,5.01,0.00,22.0,20.4,00.0,30.4,23.5,07.4,0000.0,0005.74,0002.60,0001.72
